STARLINK-32394, 61853

Orbit data source: Space-Track

STARLINK-32394, 61853 is a payload satellite owned by SpaceX/Seattle (US) in LEO that was launched on Thu, 07 Nov 2024 UTC via an FALCON 9 launch vehicle from the Air Force Eastern Test Range (AFETR). Payload-class satellites include a variety of spacecraft equipped with specific instruments for various scientific and technological missions. These include communications satellites like Starlink; space stations such as the ISS; scientific satellites like the Hubble; Earth observation satellites from companies like Planet Labs, Umbra, and HawkEye 360; GPS; miniature CubeSats for education and research; and military/defense satellites.

Loading next visibility...
Identifier
61853, 2024-202J
Orbit
LEO
Country
Flag of USUS
Related business
Manufacturer
SpaceX/Seattle
Mission
Operational Commercial Communications
Bus & Motor
STARLINK V2M, Unknown motor
Mass
730 kg wet, ~700 kg dry
Launch date (UTC)
2024-11-07 (1 year ago)
Launch vehicle
FALCON 9
Launch site
Air Force Eastern Test Range (AFETR)
Object type
Payload
Rocket body
Debris
Shape & HBR
Box + 2 Pan, 17.7 m
Radar Cross Section
33.884 m², Large (>1 m²)

Expand to show TLE details & history
Last TLE update: 2 days ago

TLE from 2 days ago
0 STARLINK-32394
1 61853U 24202J   25305.87761165 -.00002140  00000-0 -68257-4 0  9990
2 61853  43.0033 239.5363 0002589 295.6962  64.3623 15.27569889 55781
Epoch: 2025-11-01T21:03Z
TLE epoch observation values (Epoch: 2025-11-01T21:03:45.646Z)
Latitude
0.00003°
Longitude
-117.80524°
Altitude
482.087 km
Speed
7.627 km/s
True Right ascension
15h 58m 08s
True Declination
0° 00' 00"
Sunlit
Object was in daylight at epoch
Visualization orbit readout
Latitude
Unknown
Longitude
Unknown
Altitude
Unknown
Speed
Unknown
Apparent Right ascension
Unknown
Apparent Declination
Unknown
Sunlit
N/A
Visualization observer readout
Local Sidereal Time
05:01:04
Azimuth
Unknown
Elevation
Unknown
Doppler factor
Unknown
Orbital elements
Apogee altitude
486.801 km
Perigee altitude
483.247 km
Semi-major axis
6,863.161 km
Eccentricity
0.00026
Inclination
43.0033°
RAAN
239.5363°
Arg. of periapsis
295.6962°
True anomaly
64.38905°
Mean anomaly
64.3623°
Eccentric anomaly
64.37567°
Mean motion
3.81731 °/min
Orbital period
94.31 mins
BSTAR
-0.000068257
Loading maneuver chart data...
Computing Atmospheric mass density...
Loading historical data...
Loading historical data...
Loading historical data...
Loading historical data...
Loading historical data...
Loading historical data...
Loading historical data...

Documentation

Showing up to 5 results
|